Orange, MA

4:11 AM EDT on May 21, 2018 (GMT -0400)
Orange Municipal

Weather History for KORE - March, 2013

Change the Weather History Date:

Wednesday, March 20, 2013

  Actual Average Record
Temperature  
Mean Temperature 28 °F -  
Max Temperature 35 °F 40 °F 78 °F (2012)
Min Temperature 18 °F 21 °F 10 °F (2004)
Degree Days  
Heating Degree Days 38    
Moisture  
Dew Point 19 °F    
Average Humidity 70    
Maximum Humidity 96    
Minimum Humidity 48    
Precipitation  
Precipitation 0.00 in - - ()
Sea Level Pressure  
Sea Level Pressure 29.76 in    
Wind  
Wind Speed 6 mph (West)    
Max Wind Speed 15 mph    
Max Gust Speed 25 mph    
Visibility 10 miles    
Events Snow    
Averages and records for this station are not official NWS values.
T = Trace of Precipitation, MM = Missing Value Source: NWS Daily Summary

Daily Weather History Graph

Daily Weather History Graph

Search for Another Location

Airport or City:

Astronomy

Mar. 20, 2013 Rise Set
Actual Time 6:52 AM EDT 7:01 PM EDT
Civil Twilight 6:23 AM EDT 7:29 PM EDT
Nautical Twilight 5:51 AM EDT 8:02 PM EDT
Astronomical Twilight 5:17 AM EDT 8:36 PM EDT
Moon 12:27 PM EDT (3/20) 2:36 AM EDT (3/20)
Length of Visible Light 13h 05m
Length of Day
12h 09m
First Quarter, 59% of the Moon is Illuminated
Mar 20
First Quarter
Mar 27
Full
Apr 3
Last Quarter
Apr 10
New
Apr 18
First Quarter

Hourly Weather History & Observations

Time (EDT) Temp. Windchill Dew Point Humidity Pressure Visibility Wind Dir Wind Speed Gust Speed Precip Events Conditions
12:01 AM 28.4 °F - 24.8 °F 86% 29.72 in 10.0 mi Calm Calm - N/A   Overcast
12:28 AM 28.4 °F - 24.8 °F 86% 29.71 in 3.0 mi Calm Calm - 0.00 in Snow Light Snow
12:48 AM 28.4 °F 17.5 °F 24.8 °F 86% 29.71 in 9.0 mi West 13.8 mph 23.0 mph 0.00 in   Overcast
12:52 AM 28.9 °F 19.8 °F 23.0 °F 78% 29.73 in 9.0 mi WNW 10.4 mph 23.0 mph 0.00 in   Overcast
12:59 AM 28.4 °F 18.5 °F 23.0 °F 80% 29.71 in 10.0 mi WNW 11.5 mph 20.7 mph N/A   Overcast
1:52 AM 26.1 °F 19.4 °F 19.0 °F 75% 29.73 in 10.0 mi WNW 5.8 mph - N/A   Scattered Clouds
2:52 AM 26.1 °F 20.5 °F 17.1 °F 69% 29.73 in 10.0 mi West 4.6 mph - N/A   Clear
3:52 AM 24.1 °F - 17.1 °F 75% 29.74 in 10.0 mi Calm Calm - N/A   Clear
4:52 AM 24.1 °F 18.2 °F 17.1 °F 75% 29.74 in 10.0 mi West 4.6 mph - N/A   Clear
5:52 AM 24.1 °F 13.7 °F 17.1 °F 75% 29.76 in 10.0 mi West 10.4 mph 16.1 mph N/A   Clear
6:52 AM 23.0 °F 17.0 °F 16.0 °F 74% 29.78 in 10.0 mi SSW 4.6 mph - N/A   Mostly Cloudy
7:52 AM 23.0 °F 17.0 °F 16.0 °F 74% 29.78 in 10.0 mi SSW 4.6 mph - N/A   Partly Cloudy
8:52 AM 26.1 °F 18.4 °F 17.1 °F 69% 29.77 in 10.0 mi West 6.9 mph - N/A   Partly Cloudy
9:52 AM 27.0 °F 17.3 °F 19.0 °F 72% 29.77 in 10.0 mi West 10.4 mph 17.3 mph N/A   Scattered Clouds
10:52 AM 28.9 °F 18.6 °F 18.0 °F 64% 29.77 in 10.0 mi WSW 12.7 mph 19.6 mph N/A   Overcast
11:52 AM 30.0 °F 19.5 °F 18.0 °F 61% 29.77 in 10.0 mi West 13.8 mph 21.9 mph N/A   Scattered Clouds
12:52 PM 30.9 °F 21.2 °F 17.1 °F 57% 29.77 in 10.0 mi West 12.7 mph 25.3 mph N/A   Mostly Cloudy
1:52 PM 32.0 °F 21.6 °F 19.0 °F 59% 29.77 in 10.0 mi WSW 15.0 mph 19.6 mph 0.00 in   Overcast
2:52 PM 33.1 °F 23.9 °F 18.0 °F 54% 29.75 in 10.0 mi SW 12.7 mph 20.7 mph 0.00 in   Overcast
3:52 PM 34.0 °F 25.0 °F 17.1 °F 50% 29.75 in 10.0 mi WSW 12.7 mph 21.9 mph N/A   Overcast
4:52 PM 34.0 °F 25.5 °F 18.0 °F 52% 29.75 in 10.0 mi WSW 11.5 mph 21.9 mph N/A   Scattered Clouds
5:52 PM 34.0 °F 25.0 °F 16.0 °F 48% 29.76 in 10.0 mi West 12.7 mph 21.9 mph N/A   Partly Cloudy
6:52 PM 32.0 °F 24.2 °F 15.1 °F 50% 29.78 in 10.0 mi WSW 9.2 mph - N/A   Clear
7:52 PM 30.0 °F - 16.0 °F 56% 29.79 in 10.0 mi Calm Calm - N/A   Clear
8:52 PM 24.1 °F - 17.1 °F 75% 29.80 in 10.0 mi Calm Calm - N/A   Clear
10:52 PM 21.0 °F - 18.0 °F 88% 29.82 in 10.0 mi Calm Calm - N/A   Clear
11:52 PM 18.0 °F - 17.1 °F 96% 29.81 in 9.0 mi Calm Calm - N/A   Mostly Cloudy